Year,Month,Day,Hour,Minute,Value (Times are PST for temperature in C)
2009,04,23,00,00,4.10
2009,04,23,00,01,4.10
2009,04,23,00,02,4.10
2009,04,23,00,03,4.10
2009,04,23,00,04,4.10
2009,04,23,00,05,4.10
2009,04,23,00,06,4.10
2009,04,23,00,07,4.10
2009,04,23,00,08,4.10
2009,04,23,00,09,4.10
2009,04,23,00,10,4.10
2009,04,23,00,11,4.10
2009,04,23,00,12,4.10
2009,04,23,00,13,4.10
2009,04,23,00,14,4.10
2009,04,23,00,15,4.10
2009,04,23,00,16,4.10
2009,04,23,00,17,4.10
2009,04,23,00,18,4.10
2009,04,23,00,19,4.10
2009,04,23,00,20,4.10
2009,04,23,00,21,4.10
2009,04,23,00,22,4.10
2009,04,23,00,23,4.10
2009,04,23,00,24,4.10
2009,04,23,00,25,4.10
2009,04,23,00,26,4.10
2009,04,23,00,27,4.10
2009,04,23,00,28,4.10
2009,04,23,00,29,4.10
2009,04,23,00,30,4.10
2009,04,23,00,31,4.10
2009,04,23,00,32,4.10
2009,04,23,00,33,4.10
2009,04,23,00,34,4.10
2009,04,23,00,35,4.10
2009,04,23,00,36,4.10
2009,04,23,00,37,4.10
2009,04,23,00,38,4.10
2009,04,23,00,39,4.10
2009,04,23,00,40,4.20
2009,04,23,00,41,4.20
2009,04,23,00,42,4.20
2009,04,23,00,43,4.20
2009,04,23,00,44,4.20
2009,04,23,00,45,4.20
2009,04,23,00,46,4.20
2009,04,23,00,47,4.20
2009,04,23,00,48,4.20
2009,04,23,00,49,4.20
2009,04,23,00,50,4.20
2009,04,23,00,51,4.20
2009,04,23,00,52,4.20
2009,04,23,00,53,4.20
2009,04,23,00,54,4.20
2009,04,23,00,55,4.20
2009,04,23,00,56,4.20
2009,04,23,00,57,4.20
2009,04,23,00,58,4.20
2009,04,23,00,59,4.20
2009,04,23,01,00,4.20
2009,04,23,01,01,4.20
2009,04,23,01,02,4.20
2009,04,23,01,03,4.20
2009,04,23,01,04,4.20
2009,04,23,01,05,4.20
2009,04,23,01,06,4.20
2009,04,23,01,07,4.20
2009,04,23,01,08,4.20
2009,04,23,01,09,4.20
2009,04,23,01,10,4.20
2009,04,23,01,11,4.20
2009,04,23,01,12,4.20
2009,04,23,01,13,4.20
2009,04,23,01,14,4.20
2009,04,23,01,15,4.20
2009,04,23,01,16,4.20
2009,04,23,01,17,4.20
2009,04,23,01,18,4.20
2009,04,23,01,19,4.20
2009,04,23,01,20,4.20
2009,04,23,01,21,4.20
2009,04,23,01,22,4.20
2009,04,23,01,23,4.20
2009,04,23,01,24,4.20
2009,04,23,01,25,4.20
2009,04,23,01,26,4.20
2009,04,23,01,27,4.20
2009,04,23,01,28,4.20
2009,04,23,01,29,4.20
2009,04,23,01,30,4.20
2009,04,23,01,31,4.20
2009,04,23,01,32,4.20
2009,04,23,01,33,4.20
2009,04,23,01,34,4.20
2009,04,23,01,35,4.20
2009,04,23,01,36,4.20
2009,04,23,01,37,4.20
2009,04,23,01,38,4.20
2009,04,23,01,39,4.20
2009,04,23,01,40,4.20
2009,04,23,01,41,4.20
2009,04,23,01,42,4.20
2009,04,23,01,43,4.20
2009,04,23,01,44,4.30
2009,04,23,01,45,4.30
2009,04,23,01,46,4.30
2009,04,23,01,47,4.30
2009,04,23,01,48,4.30
2009,04,23,01,49,4.30
2009,04,23,01,50,4.30
2009,04,23,01,51,4.30
2009,04,23,01,52,4.30
2009,04,23,01,53,4.30
2009,04,23,01,54,4.30
2009,04,23,01,55,4.30
2009,04,23,01,56,4.30
2009,04,23,01,57,4.30
2009,04,23,01,58,4.30
2009,04,23,01,59,4.30
2009,04,23,02,00,4.30
2009,04,23,02,01,4.30
2009,04,23,02,02,4.30
2009,04,23,02,03,4.30
2009,04,23,02,04,4.30
2009,04,23,02,05,4.30
2009,04,23,02,06,4.30
2009,04,23,02,07,4.30
2009,04,23,02,08,4.30
2009,04,23,02,09,4.30
2009,04,23,02,10,4.30
2009,04,23,02,11,4.30
2009,04,23,02,12,4.30
2009,04,23,02,13,4.30
2009,04,23,02,14,4.30
2009,04,23,02,15,4.30
2009,04,23,02,16,4.30
2009,04,23,02,17,4.30
2009,04,23,02,18,4.30
2009,04,23,02,19,4.30
2009,04,23,02,20,4.30
2009,04,23,02,21,4.30
2009,04,23,02,22,4.30
2009,04,23,02,23,4.30
2009,04,23,02,24,4.30
2009,04,23,02,25,4.30
2009,04,23,02,26,4.30
2009,04,23,02,27,4.20
2009,04,23,02,28,4.20
2009,04,23,02,29,4.20
2009,04,23,02,30,4.20
2009,04,23,02,31,4.20
2009,04,23,02,32,4.20
2009,04,23,02,33,4.20
2009,04,23,02,34,4.20
2009,04,23,02,35,4.20
2009,04,23,02,36,4.10
2009,04,23,02,37,4.10
2009,04,23,02,38,4.10
2009,04,23,02,39,4.10
2009,04,23,02,40,4.10
2009,04,23,02,41,4.10
2009,04,23,02,42,4.10
2009,04,23,02,43,4.10
2009,04,23,02,44,4.10
2009,04,23,02,45,4.10
2009,04,23,02,46,4.00
2009,04,23,02,47,4.00
2009,04,23,02,48,4.00
2009,04,23,02,49,4.00
2009,04,23,02,50,4.00
2009,04,23,02,51,3.90
2009,04,23,02,52,3.90
2009,04,23,02,53,3.90
2009,04,23,02,54,3.90
2009,04,23,02,55,3.80
2009,04,23,02,56,3.80
2009,04,23,02,57,3.80
2009,04,23,02,58,3.80
2009,04,23,02,59,3.80
2009,04,23,03,00,3.70
2009,04,23,03,01,3.70
2009,04,23,03,02,3.70
2009,04,23,03,03,3.70
2009,04,23,03,04,3.70
2009,04,23,03,05,3.70
2009,04,23,03,06,3.70
2009,04,23,03,07,3.60
2009,04,23,03,08,3.60
2009,04,23,03,09,3.60
2009,04,23,03,10,3.60
2009,04,23,03,11,3.60
2009,04,23,03,12,3.60
2009,04,23,03,13,3.60
2009,04,23,03,14,3.60
2009,04,23,03,15,3.60
2009,04,23,03,16,3.60
2009,04,23,03,17,3.60
2009,04,23,03,18,3.60
2009,04,23,03,19,3.60
2009,04,23,03,20,3.50
2009,04,23,03,21,3.50
2009,04,23,03,22,3.50
2009,04,23,03,23,3.50
2009,04,23,03,24,3.50
2009,04,23,03,25,3.50
2009,04,23,03,26,3.40
2009,04,23,03,27,3.40
2009,04,23,03,28,3.40
2009,04,23,03,29,3.40
2009,04,23,03,30,3.40
2009,04,23,03,31,3.40
2009,04,23,03,32,3.40
2009,04,23,03,33,3.40
2009,04,23,03,34,3.30
2009,04,23,03,35,3.30
2009,04,23,03,36,3.30
2009,04,23,03,37,3.30
2009,04,23,03,38,3.30
2009,04,23,03,39,3.30
2009,04,23,03,40,3.30
2009,04,23,03,41,3.30
2009,04,23,03,42,3.30
2009,04,23,03,43,3.30
2009,04,23,03,44,3.30
2009,04,23,03,45,3.20
2009,04,23,03,46,3.20
2009,04,23,03,47,3.20
2009,04,23,03,48,3.20
2009,04,23,03,49,3.20
2009,04,23,03,50,3.20
2009,04,23,03,51,3.20
2009,04,23,03,52,3.20
2009,04,23,03,53,3.10
2009,04,23,03,54,3.10
2009,04,23,03,55,3.10
2009,04,23,03,56,3.10
2009,04,23,03,57,3.10
2009,04,23,03,58,3.10
2009,04,23,03,59,3.10
2009,04,23,04,00,3.10
2009,04,23,04,01,3.10
2009,04,23,04,02,3.10
2009,04,23,04,03,3.00
2009,04,23,04,04,3.00
2009,04,23,04,05,3.00
2009,04,23,04,06,3.00
2009,04,23,04,07,3.00
2009,04,23,04,08,2.90
2009,04,23,04,09,2.90
2009,04,23,04,10,2.90
2009,04,23,04,11,2.90
2009,04,23,04,12,2.90
2009,04,23,04,13,2.90
2009,04,23,04,14,2.90
2009,04,23,04,15,2.80
2009,04,23,04,16,2.80
2009,04,23,04,17,2.80
2009,04,23,04,18,2.80
2009,04,23,04,19,2.80
2009,04,23,04,20,2.80
2009,04,23,04,21,2.70
2009,04,23,04,22,2.70
2009,04,23,04,23,2.70
2009,04,23,04,24,2.70
2009,04,23,04,25,2.70
2009,04,23,04,26,2.70
2009,04,23,04,27,2.70
2009,04,23,04,28,2.70
2009,04,23,04,29,2.70
2009,04,23,04,30,2.70
2009,04,23,04,31,2.60
2009,04,23,04,32,2.60
2009,04,23,04,33,2.60
2009,04,23,04,34,2.60
2009,04,23,04,35,2.60
2009,04,23,04,36,2.60
2009,04,23,04,37,2.60
2009,04,23,04,38,2.60
2009,04,23,04,39,2.50
2009,04,23,04,40,2.50
2009,04,23,04,41,2.50
2009,04,23,04,42,2.50
2009,04,23,04,43,2.50
2009,04,23,04,44,2.50
2009,04,23,04,45,2.50
2009,04,23,04,46,2.40
2009,04,23,04,47,2.40
2009,04,23,04,48,2.40
2009,04,23,04,49,2.40
2009,04,23,04,50,2.40
2009,04,23,04,51,2.40
2009,04,23,04,52,2.40
2009,04,23,04,53,2.30
2009,04,23,04,54,2.30
2009,04,23,04,55,2.30
2009,04,23,04,56,2.30
2009,04,23,04,57,2.30
2009,04,23,04,58,2.30
2009,04,23,04,59,2.20
2009,04,23,05,00,2.20
2009,04,23,05,01,2.20
2009,04,23,05,02,2.20
2009,04,23,05,03,2.20
2009,04,23,05,04,2.20
2009,04,23,05,05,2.20
2009,04,23,05,06,2.20
2009,04,23,05,07,2.20
2009,04,23,05,08,2.10
2009,04,23,05,09,2.10
2009,04,23,05,10,2.10
2009,04,23,05,11,2.10
2009,04,23,05,12,2.10
2009,04,23,05,13,2.00
2009,04,23,05,14,2.00
2009,04,23,05,15,2.00
2009,04,23,05,16,1.90
2009,04,23,05,17,1.90
2009,04,23,05,18,1.90
2009,04,23,05,19,1.90
2009,04,23,05,20,1.90
2009,04,23,05,21,1.90
2009,04,23,05,22,1.90
2009,04,23,05,23,1.80
2009,04,23,05,24,1.80
2009,04,23,05,25,1.80
2009,04,23,05,26,1.80
2009,04,23,05,27,1.80
2009,04,23,05,28,1.80
2009,04,23,05,29,1.80
2009,04,23,05,30,1.80
2009,04,23,05,31,1.80
2009,04,23,05,32,1.70
2009,04,23,05,33,1.70
2009,04,23,05,34,1.70
2009,04,23,05,35,1.70
2009,04,23,05,36,1.70
2009,04,23,05,37,1.70
2009,04,23,05,38,1.70
2009,04,23,05,39,1.70
2009,04,23,05,40,1.70
2009,04,23,05,41,1.60
2009,04,23,05,42,1.60
2009,04,23,05,43,1.60
2009,04,23,05,44,1.60
2009,04,23,05,45,1.60
2009,04,23,05,46,1.60
2009,04,23,05,47,1.50
2009,04,23,05,48,1.50
2009,04,23,05,49,1.50
2009,04,23,05,50,1.40
2009,04,23,05,51,1.40
2009,04,23,05,52,1.40
2009,04,23,05,53,1.40
2009,04,23,05,54,1.40
2009,04,23,05,55,1.30
2009,04,23,05,56,1.30
2009,04,23,05,57,1.30
2009,04,23,05,58,1.30
2009,04,23,05,59,1.30
2009,04,23,06,00,1.30
2009,04,23,06,01,1.30
2009,04,23,06,02,1.30
2009,04,23,06,03,1.30
2009,04,23,06,04,1.30
2009,04,23,06,05,1.30
2009,04,23,06,06,1.30
2009,04,23,06,07,1.30
2009,04,23,06,08,1.30
2009,04,23,06,09,1.30
2009,04,23,06,10,1.30
2009,04,23,06,11,1.30
2009,04,23,06,12,1.30
2009,04,23,06,13,1.30
2009,04,23,06,14,1.30
2009,04,23,06,15,1.30
2009,04,23,06,16,1.30
2009,04,23,06,17,1.30
2009,04,23,06,18,1.30
2009,04,23,06,19,1.30
2009,04,23,06,20,1.20
2009,04,23,06,21,1.20
2009,04,23,06,22,1.20
2009,04,23,06,23,1.20
2009,04,23,06,24,1.20
2009,04,23,06,25,1.20
2009,04,23,06,26,1.20
2009,04,23,06,27,1.20
2009,04,23,06,28,1.20
2009,04,23,06,29,1.20
2009,04,23,06,30,1.20
2009,04,23,06,31,1.20
2009,04,23,06,32,1.20
2009,04,23,06,33,1.10
2009,04,23,06,34,1.10
2009,04,23,06,35,1.10
2009,04,23,06,36,1.10
2009,04,23,06,37,1.10
2009,04,23,06,38,1.10
2009,04,23,06,39,1.10
2009,04,23,06,40,1.10
2009,04,23,06,41,1.10
2009,04,23,06,42,1.10
2009,04,23,06,43,1.10
2009,04,23,06,44,1.10
2009,04,23,06,45,1.10
2009,04,23,06,46,1.10
2009,04,23,06,47,1.10
2009,04,23,06,48,1.10
2009,04,23,06,49,1.10
2009,04,23,06,50,1.10
2009,04,23,06,51,1.10
2009,04,23,06,52,1.10
2009,04,23,06,53,1.10
2009,04,23,06,54,1.10
2009,04,23,06,55,1.10
2009,04,23,06,56,1.10
2009,04,23,06,57,1.10
2009,04,23,06,58,1.10
2009,04,23,06,59,1.10
2009,04,23,07,00,1.10
2009,04,23,07,01,1.10
2009,04,23,07,02,1.10
2009,04,23,07,03,1.10
2009,04,23,07,04,1.10
2009,04,23,07,05,1.10
2009,04,23,07,06,1.10
2009,04,23,07,07,1.10
2009,04,23,07,08,1.00
2009,04,23,07,09,1.00
2009,04,23,07,10,1.00
2009,04,23,07,11,1.00
2009,04,23,07,12,1.00
2009,04,23,07,13,1.00
2009,04,23,07,14,1.00
2009,04,23,07,15,1.00
2009,04,23,07,16,1.00
2009,04,23,07,17,1.00
2009,04,23,07,18,1.00
2009,04,23,07,19,1.00
2009,04,23,07,20,1.00
2009,04,23,07,21,1.00
2009,04,23,07,22,1.00
2009,04,23,07,23,1.00
2009,04,23,07,24,1.00
2009,04,23,07,25,1.00
2009,04,23,07,26,1.00
2009,04,23,07,27,1.00
2009,04,23,07,28,1.00
2009,04,23,07,29,1.10
2009,04,23,07,30,1.10
2009,04,23,07,31,1.10
2009,04,23,07,32,1.10
2009,04,23,07,33,1.10
2009,04,23,07,34,1.10
2009,04,23,07,35,1.10
2009,04,23,07,36,1.10
2009,04,23,07,37,1.10
2009,04,23,07,38,1.10
2009,04,23,07,39,1.10
2009,04,23,07,40,1.10
2009,04,23,07,41,1.20
2009,04,23,07,42,1.20
2009,04,23,07,43,1.20
2009,04,23,07,44,1.20
2009,04,23,07,45,1.20
2009,04,23,07,46,1.20
2009,04,23,07,47,1.20
2009,04,23,07,48,1.20
2009,04,23,07,49,1.30
2009,04,23,07,50,1.30
2009,04,23,07,51,1.30
2009,04,23,07,52,1.30
2009,04,23,07,53,1.30
2009,04,23,07,54,1.30
2009,04,23,07,55,1.30
2009,04,23,07,56,1.30
2009,04,23,07,57,1.30
2009,04,23,07,58,1.30
2009,04,23,07,59,1.30
2009,04,23,08,00,1.30
2009,04,23,08,01,1.30
2009,04,23,08,02,1.30
2009,04,23,08,03,1.30
2009,04,23,08,04,1.30
2009,04,23,08,05,1.40
2009,04,23,08,06,1.40
2009,04,23,08,07,1.40
2009,04,23,08,08,1.50
2009,04,23,08,09,1.50
2009,04,23,08,10,1.50
2009,04,23,08,11,1.60
2009,04,23,08,12,1.60
2009,04,23,08,13,1.60
2009,04,23,08,14,1.60
2009,04,23,08,15,1.70
2009,04,23,08,16,1.70
2009,04,23,08,17,1.70
2009,04,23,08,18,1.70
2009,04,23,08,19,1.80
2009,04,23,08,20,1.80
2009,04,23,08,21,1.80
2009,04,23,08,22,1.80
2009,04,23,08,23,1.90
2009,04,23,08,24,1.90
2009,04,23,08,25,1.90
2009,04,23,08,26,1.90
2009,04,23,08,27,2.00
2009,04,23,08,28,2.00
2009,04,23,08,29,2.10
2009,04,23,08,30,2.10
2009,04,23,08,31,2.10
2009,04,23,08,32,2.20
2009,04,23,08,33,2.20
2009,04,23,08,34,2.20
2009,04,23,08,35,2.20
2009,04,23,08,36,2.30
2009,04,23,08,37,2.30
2009,04,23,08,38,2.30
2009,04,23,08,39,2.40
2009,04,23,08,40,2.40
2009,04,23,08,41,2.40
2009,04,23,08,42,2.50
2009,04,23,08,43,2.50
2009,04,23,08,44,2.60
2009,04,23,08,45,2.70
2009,04,23,08,46,2.70
2009,04,23,08,47,2.70
2009,04,23,08,48,2.80
2009,04,23,08,49,2.80
2009,04,23,08,50,2.80
2009,04,23,08,51,2.80
2009,04,23,08,52,2.90
2009,04,23,08,53,2.90
2009,04,23,08,54,2.90
2009,04,23,08,55,3.00
2009,04,23,08,56,3.10
2009,04,23,08,57,3.10
2009,04,23,08,58,3.10
2009,04,23,08,59,3.20
2009,04,23,09,00,3.20
2009,04,23,09,01,3.20
2009,04,23,09,02,3.30
2009,04,23,09,03,3.30
2009,04,23,09,04,3.30
2009,04,23,09,05,3.40
2009,04,23,09,06,3.50
2009,04,23,09,07,3.50
2009,04,23,09,08,3.60
2009,04,23,09,09,3.60
2009,04,23,09,10,3.70
2009,04,23,09,11,3.70
2009,04,23,09,12,3.80
2009,04,23,09,13,3.80
2009,04,23,09,14,3.80
2009,04,23,09,15,3.90
2009,04,23,09,16,3.90
2009,04,23,09,17,3.90
2009,04,23,09,18,4.00
2009,04,23,09,19,4.00
2009,04,23,09,20,4.10
2009,04,23,09,21,4.10
2009,04,23,09,22,4.20
2009,04,23,09,23,4.20
2009,04,23,09,24,4.30
2009,04,23,09,25,4.30
2009,04,23,09,26,4.40
2009,04,23,09,27,4.40
2009,04,23,09,28,4.50
2009,04,23,09,29,4.50
2009,04,23,09,30,4.60
2009,04,23,09,31,4.60
2009,04,23,09,32,4.60
2009,04,23,09,33,4.70
2009,04,23,09,34,4.70
2009,04,23,09,35,4.80
2009,04,23,09,36,4.80
2009,04,23,09,37,4.90
2009,04,23,09,38,5.00
2009,04,23,09,39,5.00
2009,04,23,09,40,5.10
2009,04,23,09,41,5.10
2009,04,23,09,42,5.10
2009,04,23,09,43,5.20
2009,04,23,09,44,5.20
2009,04,23,09,45,5.30
2009,04,23,09,46,5.30
2009,04,23,09,47,5.40
2009,04,23,09,48,5.40
2009,04,23,09,49,5.50
2009,04,23,09,50,5.50
2009,04,23,09,51,5.60
2009,04,23,09,52,5.60
2009,04,23,09,53,5.70
2009,04,23,09,54,5.70
2009,04,23,09,55,5.70
2009,04,23,09,56,5.80
2009,04,23,09,57,5.80
2009,04,23,09,58,5.80
2009,04,23,09,59,5.90
2009,04,23,10,00,5.90
2009,04,23,10,01,5.90
2009,04,23,10,02,6.00
2009,04,23,10,03,6.00
2009,04,23,10,04,6.10
2009,04,23,10,05,6.10
2009,04,23,10,06,6.20
2009,04,23,10,07,6.20
2009,04,23,10,08,6.30
2009,04,23,10,09,6.30
2009,04,23,10,10,6.30
2009,04,23,10,11,6.40
2009,04,23,10,12,6.50
2009,04,23,10,13,6.50
2009,04,23,10,14,6.60
2009,04,23,10,15,6.70
2009,04,23,10,16,6.80
2009,04,23,10,17,6.90
2009,04,23,10,18,7.10
2009,04,23,10,19,7.20
2009,04,23,10,20,7.20
2009,04,23,10,21,7.30
2009,04,23,10,22,7.30
2009,04,23,10,23,7.40
2009,04,23,10,24,7.40
2009,04,23,10,25,7.50
2009,04,23,10,26,7.60
2009,04,23,10,27,7.60
2009,04,23,10,28,7.70
2009,04,23,10,29,7.70
2009,04,23,10,30,7.80
2009,04,23,10,31,7.80
2009,04,23,10,32,7.90
2009,04,23,10,33,8.00
2009,04,23,10,34,8.10
2009,04,23,10,35,8.20
2009,04,23,10,36,8.30
2009,04,23,10,37,8.30
2009,04,23,10,38,8.40
2009,04,23,10,39,8.40
2009,04,23,10,40,8.50
2009,04,23,10,41,8.60
2009,04,23,10,42,8.60
2009,04,23,10,43,8.70
2009,04,23,10,44,8.70
2009,04,23,10,45,8.80
2009,04,23,10,46,8.90
2009,04,23,10,47,9.00
2009,04,23,10,48,9.00
2009,04,23,10,49,9.10
2009,04,23,10,50,9.20
2009,04,23,10,51,9.30
2009,04,23,10,52,9.30
2009,04,23,10,53,9.30
2009,04,23,10,54,9.40
2009,04,23,10,55,9.50
2009,04,23,10,56,9.60
2009,04,23,10,57,9.60
2009,04,23,10,58,9.70
2009,04,23,10,59,9.80
2009,04,23,11,00,9.80
2009,04,23,11,01,9.90
2009,04,23,11,02,9.90
2009,04,23,11,03,9.90
2009,04,23,11,04,10.00
2009,04,23,11,05,10.00
2009,04,23,11,06,10.00
2009,04,23,11,07,9.90
2009,04,23,11,08,9.90
2009,04,23,11,09,9.80
2009,04,23,11,10,9.80
2009,04,23,11,11,9.80
2009,04,23,11,12,9.80
2009,04,23,11,13,9.80
2009,04,23,11,14,9.80
2009,04,23,11,15,9.80
2009,04,23,11,16,9.80
2009,04,23,11,17,9.80
2009,04,23,11,18,9.80
2009,04,23,11,19,9.80
2009,04,23,11,20,9.70
2009,04,23,11,21,9.70
2009,04,23,11,22,9.70
2009,04,23,11,23,9.70
2009,04,23,11,24,9.70
2009,04,23,11,25,9.60
2009,04,23,11,26,9.60
2009,04,23,11,27,9.60
2009,04,23,11,28,9.60
2009,04,23,11,29,9.60
2009,04,23,11,30,9.70
2009,04,23,11,31,9.80
2009,04,23,11,32,9.80
2009,04,23,11,33,9.90
2009,04,23,11,34,10.00
2009,04,23,11,35,10.10
2009,04,23,11,36,10.20
2009,04,23,11,37,10.30
2009,04,23,11,38,10.30
2009,04,23,11,39,10.30
2009,04,23,11,40,10.40
2009,04,23,11,41,10.50
2009,04,23,11,42,10.60
2009,04,23,11,43,10.60
2009,04,23,11,44,10.70
2009,04,23,11,45,10.80
2009,04,23,11,46,10.90
2009,04,23,11,47,10.90
2009,04,23,11,48,10.80
2009,04,23,11,49,10.80
2009,04,23,11,50,10.80
2009,04,23,11,51,10.80
2009,04,23,11,52,10.90
2009,04,23,11,53,11.00
2009,04,23,11,54,11.10
2009,04,23,11,55,11.10
2009,04,23,11,56,11.20
2009,04,23,11,57,11.20
2009,04,23,11,58,11.30
2009,04,23,11,59,11.30
2009,04,23,12,00,11.30
2009,04,23,12,01,11.30
2009,04,23,12,02,11.40
2009,04,23,12,03,11.40
2009,04,23,12,04,11.40
2009,04,23,12,05,11.40
2009,04,23,12,06,11.30
2009,04,23,12,07,11.30
2009,04,23,12,08,11.20
2009,04,23,12,09,11.10
2009,04,23,12,10,11.00
2009,04,23,12,11,10.90
2009,04,23,12,12,10.90
2009,04,23,12,13,10.90
2009,04,23,12,14,10.90
2009,04,23,12,15,10.90
2009,04,23,12,16,11.00
2009,04,23,12,17,11.10
2009,04,23,12,18,11.20
2009,04,23,12,19,11.20
2009,04,23,12,20,11.30
2009,04,23,12,21,11.40
2009,04,23,12,22,11.40
2009,04,23,12,23,11.40
2009,04,23,12,24,11.40
2009,04,23,12,25,11.50
2009,04,23,12,26,11.60
2009,04,23,12,27,11.70
2009,04,23,12,28,11.80
2009,04,23,12,29,11.80
2009,04,23,12,30,11.90
2009,04,23,12,31,12.00
2009,04,23,12,32,11.90
2009,04,23,12,33,11.90
2009,04,23,12,34,11.90
2009,04,23,12,35,11.90
2009,04,23,12,36,11.90
2009,04,23,12,37,11.90
2009,04,23,12,38,11.90
2009,04,23,12,39,11.90
2009,04,23,12,40,11.80
2009,04,23,12,41,11.80
2009,04,23,12,42,11.70
2009,04,23,12,43,11.70
2009,04,23,12,44,11.70
2009,04,23,12,45,11.60
2009,04,23,12,46,11.60
2009,04,23,12,47,11.60
2009,04,23,12,48,11.60
2009,04,23,12,49,11.50
2009,04,23,12,50,11.50
2009,04,23,12,51,11.50
2009,04,23,12,52,11.50
2009,04,23,12,53,11.40
2009,04,23,12,54,11.40
2009,04,23,12,55,11.40
2009,04,23,12,56,11.30
2009,04,23,12,57,11.30
2009,04,23,12,58,11.30
2009,04,23,12,59,11.30
2009,04,23,13,00,11.30
2009,04,23,13,01,11.30
2009,04,23,13,02,11.40
2009,04,23,13,03,11.30
2009,04,23,13,04,11.30
2009,04,23,13,05,11.30
2009,04,23,13,06,11.30
2009,04,23,13,07,11.30
2009,04,23,13,08,11.30
2009,04,23,13,09,11.30
2009,04,23,13,10,11.30
2009,04,23,13,11,11.30
2009,04,23,13,12,11.30
2009,04,23,13,13,11.30
2009,04,23,13,14,11.30
2009,04,23,13,15,11.30
2009,04,23,13,16,11.30
2009,04,23,13,17,11.30
2009,04,23,13,18,11.20
2009,04,23,13,19,11.20
2009,04,23,13,20,11.20
2009,04,23,13,21,11.30
2009,04,23,13,22,11.40
2009,04,23,13,23,11.50
2009,04,23,13,24,11.50
2009,04,23,13,25,11.60
2009,04,23,13,26,11.70
2009,04,23,13,27,11.80
2009,04,23,13,28,11.90
2009,04,23,13,29,12.00
2009,04,23,13,30,12.00
2009,04,23,13,31,12.00
2009,04,23,13,32,12.00
2009,04,23,13,33,12.00
2009,04,23,13,34,12.10
2009,04,23,13,35,12.10
2009,04,23,13,36,12.20
2009,04,23,13,37,12.20
2009,04,23,13,38,12.30
2009,04,23,13,39,12.40
2009,04,23,13,40,12.40
2009,04,23,13,41,12.40
2009,04,23,13,42,12.50
2009,04,23,13,43,12.50
2009,04,23,13,44,12.60
2009,04,23,13,45,12.60
2009,04,23,13,46,12.50
2009,04,23,13,47,12.40
2009,04,23,13,48,12.40
2009,04,23,13,49,12.30
2009,04,23,13,50,12.20
2009,04,23,13,51,12.20
2009,04,23,13,52,12.10
2009,04,23,13,53,12.00
2009,04,23,13,54,11.90
2009,04,23,13,55,11.90
2009,04,23,13,56,11.80
2009,04,23,13,57,11.80
2009,04,23,13,58,11.80
2009,04,23,13,59,11.80
2009,04,23,14,00,11.80
2009,04,23,14,01,11.70
2009,04,23,14,02,11.70
2009,04,23,14,03,11.70
2009,04,23,14,04,11.70
2009,04,23,14,05,11.70
2009,04,23,14,06,11.70
2009,04,23,14,07,11.70
2009,04,23,14,08,11.70
2009,04,23,14,09,11.60
2009,04,23,14,10,11.60
2009,04,23,14,11,11.60
2009,04,23,14,12,11.60
2009,04,23,14,13,11.60
2009,04,23,14,14,11.60
2009,04,23,14,15,11.70
2009,04,23,14,16,11.70
2009,04,23,14,17,11.80
2009,04,23,14,18,12.00
2009,04,23,14,19,12.10
2009,04,23,14,20,12.20
2009,04,23,14,21,12.40
2009,04,23,14,22,12.50
2009,04,23,14,23,12.70
2009,04,23,14,24,12.90
2009,04,23,14,25,13.10
2009,04,23,14,26,13.30
2009,04,23,14,27,13.30
2009,04,23,14,28,13.30
2009,04,23,14,29,13.30
2009,04,23,14,30,13.30
2009,04,23,14,31,13.30
2009,04,23,14,32,13.30
2009,04,23,14,33,13.20
2009,04,23,14,34,13.20
2009,04,23,14,35,13.20
2009,04,23,14,36,13.20
2009,04,23,14,37,13.20
2009,04,23,14,38,13.20
2009,04,23,14,39,13.20
2009,04,23,14,40,13.20
2009,04,23,14,41,13.20
2009,04,23,14,42,13.30
2009,04,23,14,43,13.30
2009,04,23,14,44,13.30
2009,04,23,14,45,13.40
2009,04,23,14,46,13.40
2009,04,23,14,47,13.50
2009,04,23,14,48,13.60
2009,04,23,14,49,13.70
2009,04,23,14,50,13.80
2009,04,23,14,51,13.90
2009,04,23,14,52,14.00
2009,04,23,14,53,14.10
2009,04,23,14,54,14.10
2009,04,23,14,55,14.10
2009,04,23,14,56,14.20
2009,04,23,14,57,14.20
2009,04,23,14,58,14.20
2009,04,23,14,59,14.20
2009,04,23,15,00,14.30
2009,04,23,15,01,14.30
2009,04,23,15,02,14.30
2009,04,23,15,03,14.30
2009,04,23,15,04,14.40
2009,04,23,15,05,14.40
2009,04,23,15,06,14.50
2009,04,23,15,07,14.60
2009,04,23,15,08,14.60
2009,04,23,15,09,14.60
2009,04,23,15,10,14.60
2009,04,23,15,11,14.50
2009,04,23,15,12,14.50
2009,04,23,15,13,14.40
2009,04,23,15,14,14.40
2009,04,23,15,15,14.40
2009,04,23,15,16,14.40
2009,04,23,15,17,14.30
2009,04,23,15,18,14.30
2009,04,23,15,19,14.20
2009,04,23,15,20,14.20
2009,04,23,15,21,14.10
2009,04,23,15,22,14.10
2009,04,23,15,23,14.10
2009,04,23,15,24,14.10
2009,04,23,15,25,14.10
2009,04,23,15,26,14.10
2009,04,23,15,27,14.10
2009,04,23,15,28,14.10
2009,04,23,15,29,14.00
2009,04,23,15,30,14.00
2009,04,23,15,31,14.00
2009,04,23,15,32,14.00
2009,04,23,15,33,14.00
2009,04,23,15,34,14.10
2009,04,23,15,35,14.10
2009,04,23,15,36,14.10
2009,04,23,15,37,14.20
2009,04,23,15,38,14.30
2009,04,23,15,39,14.30
2009,04,23,15,40,14.40
2009,04,23,15,41,14.40
2009,04,23,15,42,14.40
2009,04,23,15,43,14.40
2009,04,23,15,44,14.50
2009,04,23,15,45,14.50
2009,04,23,15,46,14.50
2009,04,23,15,47,14.50
2009,04,23,15,48,14.50
2009,04,23,15,49,14.40
2009,04,23,15,50,14.40
2009,04,23,15,51,14.40
2009,04,23,15,52,14.40
2009,04,23,15,53,14.50
2009,04,23,15,54,14.50
2009,04,23,15,55,14.50
2009,04,23,15,56,14.50
2009,04,23,15,57,14.50
2009,04,23,15,58,14.50
2009,04,23,15,59,14.50
2009,04,23,16,00,14.40
2009,04,23,16,01,14.40
2009,04,23,16,02,14.40
2009,04,23,16,03,14.30
2009,04,23,16,04,14.20
2009,04,23,16,05,14.20
2009,04,23,16,06,14.20
2009,04,23,16,07,14.10
2009,04,23,16,08,14.10
2009,04,23,16,09,14.00
2009,04,23,16,10,14.00
2009,04,23,16,11,13.90
2009,04,23,16,12,13.80
2009,04,23,16,13,13.80
2009,04,23,16,14,13.70
2009,04,23,16,15,13.70
2009,04,23,16,16,13.60
2009,04,23,16,17,13.50
2009,04,23,16,18,13.40
2009,04,23,16,19,13.40
2009,04,23,16,20,13.40
2009,04,23,16,21,13.40
2009,04,23,16,22,13.30
2009,04,23,16,23,13.30
2009,04,23,16,24,13.30
2009,04,23,16,25,13.30
2009,04,23,16,26,13.30
2009,04,23,16,27,13.30
2009,04,23,16,28,13.30
2009,04,23,16,29,13.30
2009,04,23,16,30,13.30
2009,04,23,16,31,13.30
2009,04,23,16,32,13.30
2009,04,23,16,33,13.30
2009,04,23,16,34,13.40
2009,04,23,16,35,13.40
2009,04,23,16,36,13.40
2009,04,23,16,37,13.40
2009,04,23,16,38,13.40
2009,04,23,16,39,13.40
2009,04,23,16,40,13.40
2009,04,23,16,41,13.40
2009,04,23,16,42,13.40
2009,04,23,16,43,13.50
2009,04,23,16,44,13.50
2009,04,23,16,45,13.50
2009,04,23,16,46,13.50
2009,04,23,16,47,13.60
2009,04,23,16,48,13.60
2009,04,23,16,49,13.70
2009,04,23,16,50,13.70
2009,04,23,16,51,13.80
2009,04,23,16,52,13.80
2009,04,23,16,53,13.80
2009,04,23,16,54,13.80
2009,04,23,16,55,13.70
2009,04,23,16,56,13.70
2009,04,23,16,57,13.70
2009,04,23,16,58,13.80
2009,04,23,16,59,13.70
2009,04,23,17,00,13.70
2009,04,23,17,01,13.70
2009,04,23,17,02,13.70
2009,04,23,17,03,13.70
2009,04,23,17,04,13.80
2009,04,23,17,05,13.90
2009,04,23,17,06,13.90
2009,04,23,17,07,14.00
2009,04,23,17,08,14.10
2009,04,23,17,09,14.10
2009,04,23,17,10,14.10
2009,04,23,17,11,14.00
2009,04,23,17,12,14.00
2009,04,23,17,13,14.10
2009,04,23,17,14,14.10
2009,04,23,17,15,14.10
2009,04,23,17,16,14.10
2009,04,23,17,17,14.10
2009,04,23,17,18,14.20
2009,04,23,17,19,14.20
2009,04,23,17,20,14.10
2009,04,23,17,21,14.00
2009,04,23,17,22,13.90
2009,04,23,17,23,13.80
2009,04,23,17,24,13.80
2009,04,23,17,25,13.80
2009,04,23,17,26,13.90
2009,04,23,17,27,13.90
2009,04,23,17,28,13.90
2009,04,23,17,29,14.00
2009,04,23,17,30,14.00
2009,04,23,17,31,14.10
2009,04,23,17,32,14.20
2009,04,23,17,33,14.20
2009,04,23,17,34,14.30
2009,04,23,17,35,14.40
2009,04,23,17,36,14.40
2009,04,23,17,37,14.50
2009,04,23,17,38,14.60
2009,04,23,17,39,14.70
2009,04,23,17,40,14.70
2009,04,23,17,41,14.70
2009,04,23,17,42,14.80
2009,04,23,17,43,14.90
2009,04,23,17,44,14.90
2009,04,23,17,45,15.00
2009,04,23,17,46,15.00
2009,04,23,17,47,14.90
2009,04,23,17,48,14.80
2009,04,23,17,49,14.70